Retour au catalogue

STARLINK-11153

ActifCommunicationsVLEO
NORAD 60067·PAYLOAD·🇺🇸 United States

Lancé Jun 19, 2024 depuis Vandenberg Space Force Base

Loading…

Prochains Passages (prochaines 24 heures)

TLE

FraisSource: CelesTrak SupGP

Époque: Sep 15, 2026, 01:54 UTC

1 60067C 24113J   26258.07965278 -.00017664  00000+0 -14550-3 0  2588
2 60067  53.1569 337.9972 0001217  70.3513 210.3110 15.69718770    10

Suivez STARLINK-11153 en temps réel avec AllMySat

Download on the App Store